Location: Observatoire
(46.1952°N, 5.3391°E)
Time: 04:19:59
(UTC+01:00)

Altair - Pass Details

Date: 26 February 2026
Orbit: 1502 x 1682 km, 47.2° (Epoch: 7 March)

Event Time Altitude Azimuth Distance (km) Brightness Sun altitude
Rises 00:38:08 0° 179° (S) 4,638 - -52.5°
Reaches altitude 10° 00:42:43 10° 159° (SSE) 3,648 - -52.6°
Maximum altitude 00:47:40 16° 126° (SE) 3,195 - -52.6°
Drops below altitude 10° 00:52:38 10° 92° (E) 3,657 - -52.6°
Exits shadow 00:55:45 - 78° (ENE) 4,305 9.9 -52.6°
Sets 00:57:12 0° 73° (ENE) 4,657 10.2 -52.6°
